RH
90 50 36 52 55 38 42 33 16 12 11 14 17 12 10 18 38 79 83 82 81 86 89 88 87 87 83 80 78 79 90 95 88 69 74 70 74 74 72 80 83 77 74
57 30 33 47 37 45 30 18 12 12 9 10 9 9 17 26 70 83 65 88 85 90 90 90 88 83 89 86 83 81 95 97 89 88 82 87 88 88 87 88 89 83 80
30 33 39 41 47 40 39 19 12 10 10 9 8 16 28 67 82 70 74 82 90 92 94 93 93 92 91 89 93 95 99 98 99 99 93 96 94 96 93 88 85 85 90
38 42 46 53 58 38 20 16 11 11 8 9 20 29 39 74 79 65 82 60 55 69 64 85 87 96 97 72 73 88 97 97 97 99 100 98 96 98 95 93 91 93 93
47 52 57 61 52 24 17 12 14 9 10 19 34 48 72 75 79 39 38 39 41 40 38 42 50 52 54 60 80 82 97 100 100 99 98 98 98 100 95 95 92 87 94
49 52 62 58 29 19 14 20 17 13 17 29 50 65 92 89 61 36 36 42 41 39 38 41 47 51 74 71 64 81 100 99 100 99 100 100 100 100 100 98 99 99 99
48 57 69 35 22 16 26 32 20 19 25 39 58 87 95 96 50 45 42 40 30 18 21 29 45 78 63 68 91 98 99 100 100 100 100 100 100 99 100 99 99 98 98
52 62 55 28 19 33 42 32 24 32 65 90 91 51 44 46 44 42 24 14 19 25 40 53 69 56 62 80 87 94 98 92 98 100 100 100 100 100 100 99 98 98 97
56 61 41 23 42 55 49 23 26 53 54 43 43 43 46 45 16 15 16 16 19 24 27 40 45 52 63 66 92 100 100 80 89 95 94 92 92 96 100 99 98 99 98
61 48 26 34 61 56 32 40 29 39 43 45 49 31 17 37 18 19 18 19 19 18 20 25 37 58 77 79 100 100 100 94 97 90 84 79 87 96 96 100 100 100 100
54 29 36 68 60 39 26 31 39 41 47 46 22 27 29 22 22 23 23 21 20 18 17 25 46 78 72 72 100 100 100 100 96 95 95 97 100 100 100 100 100 100 100
44 49 62 55 36 26 33 38 52 47 34 20 21 22 24 26 28 30 28 25 22 19 20 31 62 70 62 70 99 100 97 98 99 100 100 100 100 100 94 93 96 98 100
45 61 52 36 40 35 43 50 37 41 24 20 22 27 31 34 36 37 34 30 25 22 19 31 59 62 72 97 100 100 100 100 100 100 100 100 100 100 96 96 96 96 94
62 47 41 47 36 39 45 21 14 18 20 22 26 30 35 40 43 42 39 34 29 24 22 36 56 66 100 100 100 100 100 100 100 100 99 100 99 97 99 95 96 98 96
67 53 64 60 33 28 16 16 18 21 22 25 30 37 42 46 48 48 44 38 33 26 23 38 70 78 98 100 100 100 100 100 100 100 100 100 99 99 99 96 95 96 98
70 75 53 30 16 14 16 20 22 24 27 32 38 44 48 51 53 54 50 44 38 30 24 67 97 96 100 100 100 100 99 99 100 97 100 100 100 100 99 99 96 97 97
68 40 22 13 15 17 20 22 23 29 34 40 46 50 53 56 59 60 56 50 43 36 47 88 100 100 100 100 100 98 98 98 100 100 100 100 100 100 100 96 98 97 96
30 17 12 15 17 20 22 24 31 37 40 45 51 56 59 61 63 64 62 56 49 45 41 69 100 100 97 100 100 100 99 100 100 100 100 100 97 97 97 95 97 95 96
13 12 15 17 19 23 30 34 36 37 38 44 53 58 61 64 66 69 67 62 56 46 35 25 71 100 92 85 95 100 98 100 100 97 97 99 96 96 98 98 97 98 96
17 18 20 25 29 30 29 28 28 29 34 43 53 57 61 65 68 72 73 68 61 53 43 33 28 70 92 86 91 100 100 98 99 100 100 96 95 96 96 96 97 96 96
24 26 27 26 24 23 22 22 24 29 38 47 54 60 65 70 73 76 82 76 67 61 52 44 38 39 89 96 96 100 100 100 99 100 100 98 96 97 96 96 96 96 97
24 24 24 24 24 25 27 34 51 63 75 84 90 95 96 92 87 89 95 100 80 69 62 57 48 37 52 97 95 100 100 100 98 100 100 98 96 96 96 96 97 100 100
26 26 28 29 29 35 38 48 69 91 99 99 100 99 98 98 99 100 100 100 96 77 68 63 54 45 29 39 86 99 100 100 99 97 100 100 96 96 96 96 96 97 100
23 24 26 46 53 60 90 99 100 100 100 100 100 99 98 98 99 100 100 100 100 96 81 68 58 51 39 25 44 85 100 100 100 98 97 99 97 96 96 96 96 96 95
38 43 53 65 81 100 100 100 99 100 100 99 99 99 99 94 92 91 94 97 100 100 100 91 77 57 42 30 26 70 92 95 96 99 96 97 98 96 96 96 96 96 92
84 94 100 100 100 100 100 100 100 100 99 98 95 92 90 87 89 89 89 91 95 96 99 100 99 74 49 31 27 48 86 94 96 97 97 97 97 97 96 96 96 95 85
Wind_Speed
40 38 36 31 27 24 20 17 14 10 7 7 7 10 11 12 11 10 10 11 11 12 12 14 15 16 17 18 20 22 26 22 30 45 35 36 34 34 36 36 36 34 32
43 40 37 32 27 22 20 16 12 9 7 8 10 10 10 10 9 9 9 9 10 11 12 14 15 16 18 19 21 23 27 26 28 36 44 38 35 33 34 35 34 30 30
42 40 35 31 25 22 19 15 11 8 7 8 9 8 8 7 7 8 9 10 10 11 13 14 16 18 20 21 23 29 29 31 31 31 43 41 39 33 35 36 37 34 30
41 36 34 27 24 23 19 14 10 7 8 8 7 7 7 5 6 7 7 11 13 14 17 18 19 19 21 29 32 30 29 31 34 36 40 40 39 35 34 35 35 31 31
35 32 29 27 26 23 18 13 9 7 6 6 6 5 5 5 7 11 13 15 18 21 22 24 24 26 28 29 28 32 34 33 35 38 42 40 40 35 37 37 36 35 36
34 32 29 30 27 21 16 11 8 6 6 5 5 6 4 5 14 15 16 18 21 23 25 25 26 27 23 26 30 30 30 35 39 36 39 38 39 37 38 35 38 37 35
35 32 30 31 26 20 14 10 7 6 5 6 7 5 5 10 14 15 17 18 20 21 22 24 26 24 29 31 32 35 37 32 33 33 35 35 37 35 36 39 37 35 31
36 32 32 30 24 18 14 10 8 7 7 7 9 9 8 10 11 12 13 16 18 22 24 24 25 29 31 31 35 37 36 34 28 25 28 32 31 32 32 32 31 32 31
36 34 34 29 23 17 13 11 8 10 11 9 7 6 5 5 6 9 13 17 19 22 23 24 27 30 29 33 34 36 35 30 24 25 26 27 28 28 26 28 29 26 28
37 38 33 27 18 14 14 15 12 12 10 7 5 4 2 2 6 11 14 18 21 25 28 28 28 27 30 35 33 31 31 29 29 29 27 28 27 25 23 22 24 24 24
41 36 30 22 18 17 14 13 12 12 10 9 7 5 2 2 6 9 13 18 22 26 28 29 27 26 32 31 27 26 25 28 29 29 31 30 26 23 22 21 19 20 22
39 35 29 25 19 15 15 14 14 13 12 10 7 4 2 4 8 10 13 17 21 25 28 29 28 29 30 27 24 23 23 24 26 28 28 27 25 25 24 19 17 16 15
40 32 27 20 15 14 18 17 17 14 12 10 6 3 2 6 9 12 15 19 22 24 26 27 28 28 26 25 24 23 23 23 23 25 25 26 24 20 18 15 12 12 11
33 27 21 15 18 20 20 20 18 16 12 9 5 2 3 6 9 12 15 19 23 26 27 27 26 25 21 22 23 23 22 20 21 22 24 21 19 17 14 13 10 9 10
25 21 13 16 22 23 22 20 17 13 10 7 4 3 5 7 9 13 16 19 23 25 26 24 23 23 22 23 25 24 23 19 20 21 19 18 16 14 13 11 8 6 5
21 18 22 26 26 25 23 19 15 10 8 6 5 5 8 10 12 14 16 18 21 23 23 19 21 22 22 22 24 25 22 20 21 20 17 15 13 12 10 9 5 3 6
18 22 27 28 28 24 20 17 14 10 8 7 8 9 10 12 14 16 17 18 19 22 18 19 20 20 22 21 21 22 23 19 19 16 15 13 11 10 9 5 3 4 7
25 28 29 28 25 21 18 15 12 10 9 10 11 12 13 14 16 18 18 19 17 17 18 18 18 20 20 22 20 20 21 20 17 15 13 12 10 8 6 2 2 6 9
28 28 27 24 21 18 15 13 12 12 12 13 14 16 16 17 18 18 18 19 18 18 18 20 18 19 20 20 21 19 19 19 17 14 11 11 9 6 3 1 4 8 10
25 24 23 21 19 16 14 13 13 15 16 17 18 19 19 21 22 21 20 20 20 19 18 19 20 18 19 19 20 19 18 18 16 13 10 10 8 5 1 3 6 8 8
24 22 19 17 16 14 14 15 16 17 18 20 22 22 21 24 26 25 23 21 19 20 19 20 20 19 18 19 18 17 16 16 17 14 10 9 7 3 3 6 7 6 11
19 18 17 15 14 15 15 15 16 17 19 21 22 23 26 27 27 27 23 20 20 20 20 20 21 21 18 18 19 18 17 15 15 15 11 9 7 5 5 6 8 11 13
15 14 13 14 15 16 18 19 19 20 21 23 25 27 28 30 28 24 22 22 23 22 21 22 22 22 20 18 18 17 18 16 13 14 13 10 9 8 8 9 11 12 12
15 15 16 15 17 19 19 21 22 23 26 27 27 27 28 28 29 29 27 25 23 23 22 22 22 22 22 21 19 18 17 16 14 15 15 13 12 11 11 13 13 14 14
15 18 19 20 20 21 23 22 23 23 24 25 24 25 26 26 27 27 27 26 24 23 23 22 22 22 23 22 20 19 19 18 16 16 16 15 15 13 14 15 16 16 17
16 16 16 17 19 20 20 19 20 20 21 22 22 23 24 25 26 27 27 26 27 26 23 22 23 24 24 24 21 20 19 18 17 17 17 17 17 17 17 18 19 18 19
Wind_Direction
189 184 178 176 178 181 175 179 184 197 216 234 261 282 291 296 295 288 293 299 302 303 304 303 299 303 303 301 297 295 293 296 293 292 295 296 296 295 294 293 290 289 293
190 183 185 184 180 174 179 185 193 204 225 257 274 279 288 291 287 290 301 296 304 306 302 302 304 305 303 302 300 297 289 295 292 292 290 296 297 295 290 294 292 285 284
184 186 184 181 174 175 178 185 194 211 242 262 269 280 286 279 285 291 300 306 306 303 306 305 305 305 304 303 295 288 300 296 293 288 292 296 297 301 299 289 286 287 282
185 185 182 172 170 178 181 190 199 221 248 260 268 274 276 267 275 288 301 301 308 306 303 301 300 301 292 289 291 294 296 294 294 295 296 299 302 306 306 308 304 293 287
177 176 173 169 178 181 184 189 207 227 241 249 254 261 244 268 258 280 297 306 311 311 309 305 302 300 299 297 299 298 300 299 299 297 295 296 298 302 305 304 301 302 288
178 176 171 177 181 180 183 194 206 220 233 233 228 220 214 239 270 295 306 314 314 315 315 315 315 313 311 301 305 302 299 297 297 297 296 296 299 305 307 302 301 299 300
179 175 172 179 177 178 181 189 196 200 227 214 211 208 200 256 284 303 311 318 319 320 321 322 319 314 316 316 309 304 305 302 296 298 296 298 304 308 305 305 300 296 295
178 173 174 175 174 174 178 183 183 199 191 187 203 240 257 267 293 304 324 328 327 327 326 321 316 318 319 317 312 308 309 311 308 304 302 303 303 305 302 304 300 290 289
178 171 173 172 170 175 178 179 192 192 205 218 228 244 265 289 315 330 329 329 331 325 320 318 318 322 323 324 318 315 313 316 317 311 309 312 315 311 304 301 302 303 300
175 172 169 169 171 174 181 183 199 199 207 207 202 196 215 316 329 334 337 335 330 330 330 327 326 325 324 324 318 316 313 319 319 319 318 317 315 311 307 299 298 296 296
177 169 167 169 177 185 184 193 193 197 188 176 170 170 193 276 317 338 340 340 334 331 329 328 328 328 322 320 320 314 314 316 318 320 324 327 328 323 317 311 302 290 288
172 169 169 174 176 178 186 191 183 176 171 169 169 177 236 315 336 340 344 340 337 331 332 329 330 324 324 327 332 322 318 319 322 323 327 330 325 321 324 320 314 305 288
169 166 166 165 168 184 188 177 168 169 171 171 179 192 301 333 337 337 343 343 339 335 332 329 328 328 333 334 330 329 328 327 325 326 327 328 329 333 335 334 340 345 329
162 161 159 169 182 186 179 175 174 174 175 183 194 220 306 329 332 333 336 337 338 336 333 332 331 334 333 330 332 336 338 333 326 326 325 331 334 336 338 334 341 354 356
168 165 177 196 194 179 175 173 173 177 188 199 221 269 305 320 323 326 332 337 337 334 330 330 332 336 336 337 335 341 341 338 333 330 332 335 338 342 344 347 355 10 42
178 189 196 187 180 177 174 172 178 188 201 225 250 281 302 313 317 323 328 330 332 331 329 330 328 334 336 335 336 341 341 337 334 337 338 337 339 343 348 356 21 40 86
190 193 185 181 177 176 176 181 188 197 218 243 267 283 296 305 314 317 317 321 325 329 329 322 326 328 332 333 337 337 336 331 332 333 334 337 339 345 351 6 21 93 112
189 187 180 177 178 179 184 190 202 217 234 251 267 281 292 301 305 306 307 312 319 322 323 321 323 325 329 333 331 333 329 328 330 327 330 332 338 345 351 18 108 120 128
179 177 177 177 179 186 193 205 217 233 245 257 269 278 285 291 293 295 300 304 308 315 323 323 319 322 324 329 329 331 330 330 326 331 328 326 327 339 343 125 146 144 144
173 174 177 181 186 195 208 221 235 247 257 265 270 276 282 287 288 292 294 295 299 306 313 319 320 318 321 323 327 330 331 328 320 318 316 319 322 323 321 116 127 142 154
175 179 185 191 201 214 229 241 251 260 267 271 276 279 281 281 283 285 286 284 289 294 301 305 313 316 315 319 319 321 318 316 314 308 305 302 307 296 176 176 187 168 137
183 192 201 213 226 235 243 250 256 262 268 274 277 278 284 283 281 280 278 278 283 286 292 296 303 308 312 308 313 313 316 314 310 304 294 282 281 259 219 190 164 151 145
198 210 222 233 240 248 255 257 257 262 265 269 269 275 277 277 273 273 266 268 276 281 284 288 292 297 304 303 303 298 300 303 298 291 285 269 265 248 219 197 187 169 157
226 236 241 243 251 256 255 258 263 267 268 271 270 272 272 269 269 270 269 272 273 277 281 283 285 290 297 301 296 297 291 295 292 287 277 261 250 243 221 208 198 189 182
232 241 244 250 252 259 263 267 271 270 269 270 270 269 268 269 270 271 273 274 272 274 278 281 282 286 290 293 293 289 287 284 280 279 271 257 243 239 226 216 207 201 189
245 251 253 259 265 270 272 271 272 269 268 269 270 268 268 267 268 269 271 270 269 274 275 276 281 288 286 287 289 279 283 275 274 271 265 252 239 234 224 216 212 204 193